Track STARLINK-3582 now! 10-day predictions STARLINK-3582 is classified as:
1 51873U 22022X 22181.91667824 -.00017021 00000-0 -10536-2 0 9999 2 51873 53.2178 299.4909 0001725 50.7736 133.1111 15.08848861 1301